www.pogodaiklimat.ru
ПОГОДА в Биаке

Архив погоды в Биаке (Индонезия)

Время
(UTC), дата
18 26.01
21 26.01
00 27.01
03 27.01
06 27.01
09 27.01
12 27.01
15 27.01
18 27.01
21 27.01
00 28.01
03 28.01
06 28.01
09 28.01
12 28.01
15 28.01
18 28.01
21 28.01
00 29.01
03 29.01
06 29.01
09 29.01
12 29.01
15 29.01
18 29.01
21 29.01
00 30.01
03 30.01
06 30.01
09 30.01
12 30.01
15 30.01
18 30.01
21 30.01
00 31.01
03 31.01
06 31.01
09 31.01
12 31.01
15 31.01
18 31.01
21 31.01
00 1.02
03 1.02
06 1.02
09 1.02
12 1.02
15 1.02
18 1.02
21 1.02
00 2.02
03 2.02
Ветер
(напр.,м/с)
Видим. Явления Облачность Т
(С)
Тd
(С)
f
(%)
Тe
(С)
Тes
(С)
Комфортность P
(гПа)
Po
(гПа)
Тmin
(С)
Tmax
(С)
R
(мм)
R24
(мм)
S
(см)
В 1 10 км 8/4 540 м
[Cu med, cong Ac cuf Ci sp]
+24.9 +24.4 97 +35 +35 очень
душно
1006.3 1004.8
В 1 10 км {дождь} 10/4 540 м
[Cu med, cong Ac cuf Cs]
+24.5 +24.1 98 +34 +34 очень
душно
1007.6 1006.1 1
СВ 2 10 км {дождь} 10/4 540 м
[Cu med, cong Ac cuf Cs]
+27.7 +25.0 85 +40 +43 очень
душно
1009.1 1007.6 +24.3 3
Ю 2 6000 м слаб. дождь 10/4 540 м
[Cu med, cong Ac cuf Cs]
+28.1 +25.8 87 +42 +48 очень
душно
1007.0 1005.5 1
ЮЗ 3 10 км слаб. дождь 8/4 540 м
[Cu med, cong Ac As Cc]
+27.6 +23.9 80 +38 +41 очень
душно
1003.9 1002.4 25
С 1 10 км {дождь} 10/4 540 м
[Cu med, cong Ac As Cc]
+27.5 +25.1 87 +40 +40 очень
душно
1005.0 1003.5 1
СЗ 1 10 км {дождь} 8/4 540 м
[Cu med, cong Ac As Cc]
+25.9 +24.8 94 +37 +37 очень
душно
1007.0 1005.5 +29.6 1
СЗ 2 10 км 8/4 540 м
[Cu med, cong Ac As Cc]
+26.0 +24.8 93 +37 +37 очень
душно
1006.3 1004.8
С 2 9000 м слаб. дождь {ливн. дождь} 9/5 500 м
[Cb cap Ac As Cc]
+23.9 +23.5 98 +32 +32 очень
душно
1005.0 1003.5 18
СЗ 2 10 км {дождь} 9/5 540 м
[Cu Sc Ac As Cc]
+24.6 +23.9 96 +34 +34 очень
душно
1006.6 1005.1 0.0
СЗ 2 10 км {дождь} 10/4 540 м
[Cu Sc Ac As Cs]
+27.1 +23.9 83 +37 +41 очень
душно
1008.8 1007.3 +23.8 44
СВ 3 10 км 10/4 540 м
[Cu Sc Ac As Cs]
+27.7 +24.6 83 +39 +45 очень
душно
1006.8 1005.3
ЮЗ 3 9000 м слаб. дождь 10/5
[Cu med, cong Ac As]
+26.4 +24.5 89 +37 +38 очень
душно
1004.9 1003.4 0.5
СЗ 1 10 км {дождь} 10/4
[Cu Sc Ac inh Cs]
+26.5 +24.0 86 +37 +37 очень
душно
1005.6 1004.1 0.0
СВ 1 10 км {дождь} 10/4 540 м
[Cu Sc Ac inh Cs]
+25.0 +24.3 96 +35 +35 очень
душно
1008.9 1007.4 +28.6 0.0
С 1 10 км 10/4 540 м
[Cu Sc Ac inh Cs]
+24.6 +24.0 96 +34 +34 очень
душно
1008.2 1006.7
З 5 9000 м слаб. дождь 10/4 540 м
[Cu Sc Ac As Cs]
+25.7 +23.8 89 +35 +35 очень
душно
1006.9 1005.4 0.1
СЗ 2 10 км {дождь} 10/4 540 м
[Cu Sc Ac As Cs]
+24.5 +23.7 95 +33 +33 очень
душно
1007.3 1005.8 0.0
З 3 10 км {дождь} 10/3 540 м
[Cu med, cong Ac As Cs]
+28.0 +23.9 78 +39 +42 очень
душно
1009.1 1007.6 +23.9 0.6
З 5 10 км 10/3 540 м
[Cu med, cong Ac As Cs]
+29.3 +24.5 75 +41 +45 очень
душно
1007.8 1006.3
З 4 10 км 10/4 540 м
[Cu med, cong Ac As Cs]
+29.6 +24.3 73 +41 +43 очень
душно
1005.9 1004.4
ЮЗ 2 10 км 8/3 540 м
[Cu hum Ac lent Ci]
+28.4 +24.6 80 +40 +40 очень
душно
1007.1 1005.6
З 2 10 км 8/3 540 м
[Cu hum Ac lent Ci]
+26.7 +25.1 91 +38 +38 очень
душно
1009.2 1007.7 +29.7
СЗ 1 10 км 8/3 540 м
[Cu hum Ac lent Ci]
+26.3 +24.2 88 +37 +37 очень
душно
1009.0 1007.5
СВ 2 8000 м {дождь} 8/4 540 м
[Cu Sc Ac As Ci]
+25.7 +24.5 93 +36 +36 очень
душно
1007.4 1005.9 0.2
С 3 8000 м слаб. дождь 10/4 540 м
[Cu Sc Ac As Cs]
+25.0 +24.2 95 +34 +34 очень
душно
1009.1 1007.6 0.3
В 2 9000 м {дождь} 10/4
[Cu Sc Ac As]
+26.4 +24.5 89 +37 +39 очень
душно
1011.4 1009.9 +24.7 0.7
ЮВ 4 9000 м в посл. час дождь 10/6
[Cu med, cong As op]
+27.1 +23.4 80 +37 +38 очень
душно
1010.3 1008.8 0.3
ЮЗ 3 10 км в посл. час дождь 8/5 540 м
[Cu med, cong Ac cuf Cc]
+27.3 +24.7 86 +39 +42 очень
душно
1007.7 1006.2 0.0
СЗ 3 10 км {дождь} 8/5 540 м
[Cu med, cong Ac inh Cc]
+25.9 +24.4 91 +36 +36 очень
душно
1008.5 1007.0 0.0
СВ 1 10 км {дождь} 10/4 540 м
[Cu Sc Ac inh Cs]
+24.5 +23.9 96 +33 +33 очень
душно
1009.7 1008.2 +28.4 0.0
СВ 1 10 км 10/4 540 м
[Cu Sc Ac cuf Cs]
+24.0 +23.7 98 +33 +33 очень
душно
1009.6 1008.1
СЗ 1 10 км 10/4 540 м
[Cu Sc Ac cuf Cs]
+23.9 +23.6 98 +32 +32 очень
душно
1007.7 1006.2
СЗ 2 10 км 10/4 540 м
[Cu Sc Ac cuf Cs]
+23.7 +23.4 98 +32 +32 очень
душно
1008.9 1007.4
ЮЗ 2 10 км 9/3 540 м
[Cu hum Ac trans Cc]
+28.7 +24.6 79 +41 +45 очень
душно
1010.6 1009.1 +23.6 0.3
Ю 3 10 км 8/4 540 м
[Cu med, cong Ac trans Cc]
+30.2 +25.1 74 +44 +50 очень
душно
1008.9 1007.4
СЗ 2 7000 м слаб. дождь {туман} 10/4 540 м
[Cu Sc Cs]
+27.6 +24.6 84 +39 +44 очень
душно
1006.7 1005.2 4
СЗ 1 10 км {дождь} 10/3 540 м
[Cu med, cong Ac inh Cs]
+28.0 +25.0 84 +40 +40 очень
душно
1007.6 1006.1
СВ 1 10 км {дождь} 8/3 540 м
[Cu Sc As trans Cs]
+25.3 +24.9 98 +36 +36 очень
душно
1010.0 1008.5 +30.3
СЗ 1 10 км 8/3 540 м
[Cu Sc As trans Cs]
+24.5 +23.9 96 +33 +33 очень
душно
1009.2 1007.7
С 1 10 км в посл. час дождь 8/4 540 м
[Cu Sc Ac und Cs]
+25.0 +24.2 95 +34 +34 очень
душно
1007.5 1006.0 0.1
С 3 10 км 8/4 540 м
[Cu med, cong Ac As Ci sp]
+24.9 +23.1 90 +33 +33 очень
душно
1008.9 1007.4
ЮВ 3 10 км 8/4 540 м
[Cu med, cong Ac trans Ci sp]
+28.5 +25.1 82 +41 +45 очень
душно
1010.5 1009.0 +23.8 4
В 4 10 км 8/4 540 м
[Cu med, cong Ac trans Ci sp]
+29.6 +25.3 78 +43 +49 очень
душно
1007.9 1006.4
В 5 9000 м осадки на расстоянии 8/4 540 м
[Cu Sc Ac trans Ci sp]
+30.5 +25.0 73 +44 +46 очень
душно
1005.5 1004.0
С 2 10 км 9/4 540 м
[Cu Sc Ac As Ci sp]
+27.0 +25.1 89 +39 +39 очень
душно
1006.6 1005.1
З 1 10 км 8/3 540 м
[Cu Sc Ac trans Ci sp]
+26.6 +25.0 91 +38 +38 очень
душно
1009.0 1007.5 +30.6
СЗ 2 10 км 10/3 540 м
[Cu med, cong Ac trans Cs]
+25.1 +24.7 98 +35 +35 очень
душно
1008.9 1007.4
СЗ 2 10 км 10/3 540 м
[Cu med, cong Ac trans Cs]
+24.9 +24.4 97 +35 +35 очень
душно
1006.7 1005.2
СЗ 2 10 км 10/3 540 м
[Cu med, cong Ac trans Cs]
+24.1 +23.8 98 +33 +33 очень
душно
1007.8 1006.3
ЮЗ 2 10 км {дождь} 8/3 540 м
[Cu med, cong Ac trans Cs]
+28.9 +26.0 84 +43 +48 очень
душно
1009.3 1007.8 +24.0 0.1
Ю 1 9000 м осадки на расстоянии 8/5 500 м
[Cb cap Ac trans Ci sp]
+30.7 +25.6 74 +45 +54 очень
душно
1007.5 1006.0
Местоположение метеостанции Биак (Индонезия): широта -1.18 долгота 136.11 высота над уровнем моря 11 м.
В архиве по умолчанию представлена погода в Биаке за последнюю неделю. Архивные данные за месяц целиком и за предыдущие месяцы, начиная с января 2011 года, Вы можете получить, выбрав интересующий диапазон дат из раскрывающегося списка и нажав кнопку "Найти!".
*Определитесь, кто Вы:
Внимание! Время в таблицах - всемирное. Для получения местного времени необходимо прибавить поправку, которая равна 9 ч.
Смотрите также архив погоды в соседних городах и на ближайших метеорологических станциях:
Партнеры нашего сайта:      
Пояснения к столбцам:
  • Ветер - указаны скорость ветра в м/с - средняя за 10 мин, порывы в срок и между сроками (в фигурных скобках) и направление, откуда дует ветер: С - северный,
  • СВ - северо-восточный, В - восточный, ЮВ - юго-восточный, Ю - южный, ЮЗ - юго-западный, З - западный, СЗ - северо-западный.
  • Видимость - горизонтальная дальность видимости в метрах или километрах. При видимости от 1 до 10 км при отсутствии осадков обычно наблюдается дымка, при ухудшении видимости до 1 км и менее - туман. В сухую погоду видимость может ухудшаться дымом, пылью или мглою.
  • Явления - указаны атмосферные явления, наблюдавшиеся в срок или в последний час перед сроком; фигурными скобками обозначены явления, наблюдавшиеся между сроками (за 1-3 часа до срока); квадратными скобками обозначены град или гололедные отложения с указанием их диаметра в мм.
  • Облачность - указаны через наклонную черту общая и нижняя облачность в баллах и высота нижней границы облаков в метрах; квадратными скобками обозначены формы облаков: Ci - перистые, Cs - перисто-слоистые, Cc - перисто-кучевые, Ac - высококучевые, As - высокослоистые, Sc - слоисто-кучевые, Ns - слоисто-дождевые, Cu - кучевые, Cb - кучево-дождевые. Подробнее классификацию облаков см. в Атласе облаков (PDF).
  • T - Температура воздуха - температура, измеренная на высоте 2 м над землей.
  • Td - Температура точки росы - температура, при понижении до которой содержащийся в воздухе водяной пар достигнет насыщения.
  • f - Относительная влажность воздуха - влажноcть воздуха, измеренная на высоте 2 м над землей.
  • Te - Эффективная температура - температура, которую ощущает одетый по сезону человек в тени. Характеристика душности погоды. При расчете учитывается влияние влажности воздуха и скорости ветра на теплоощущения человека.
  • Tes - Эффективная температура на солнце - температура, которую ощущает человек, с поправкой на солнечный нагрев. Характеристика знойности погоды. Зависит от высоты солнца над горизонтом, облачности и скорости ветра. Ночью, в пасмурную погоду, а также при ветре 12 м/с и более поправка равна нулю.
  • P - Атмосферное давление - приведенное к уровню моря атмосферное давление.
  • Po - Атмосферное давление - измеренное на уровне метеостанции атмосферное давление.
  • Tmin - Минимальная температура - минимум температуры воздуха на высоте 2 м над землей.
  • Tmax - Максимальная температура - максимум температуры воздуха на высоте 2 м над землей.
  • R - Количество осадков - Количество выпавших осадков за период времени, мм. При наведении курсора мыши на число - период времени, за который выпало указанное количество осадков.
  • R24 - Количество осадков - Количество выпавших осадков за 24 часа, мм.
  • S - Снежный покров - Высота снежного покрова, см. При наведении курсора мыши на число - состояние снежного покрова и степень покрытия местности в баллах.